Home > Weather > Corvallis > Past weeks

Flag for USA Past Weather in Corvallis, Oregon, USA — Yesterday and Last 2 Weeks

Now
52 °F

Cool.


Feels Like: 50 °F
Forecast: 49 / 68 °F
Wind: 6 mph from Northwest

Location: Corvallis Municipal

Current Time: May 23, 2016 at 11:14:51 PM

Latest Report: May 23, 2016 at 10:55 PM


Visibility: 10 mi

Pressure: 29.97 "Hg

Humidity: 88%

Dew Point: 48 °F

Location of CorvallisLocation

Past Weather in Corvallis — Graph

°F

Corvallis Temperature Yesterday

Maximum temperature yesterday: 64 °F (at 2:15 PM)
Minimum temperature yesterday: 46 °F (at 1:55 AM)
Average temperature yesterday: 55 °F

High & Low Weather Summary for the Past Weeks

 TemperatureHumidityPressure
High88 °F (May 11, 4:15 PM)94% (May 14, 10:35 AM)30.28 "Hg (May 14, 10:35 AM)
Low43 °F (May 9, 4:15 AM)19% (May 11, 4:15 PM)29.77 "Hg (May 20, 4:15 PM)
Average58 °F69%30.04 "Hg
* Reported May 8 9:15 PM — May 23 9:55 PM, Corvallis, Weather by CustomWeather, © 2016

Note: Actual official high and low records may vary slightly from our data, if they occured in-between our weather recording intervals... More about our weather records

Advertising

Corvallis Weather History for the Previous 24 Hours

Scroll right to see more
 ConditionsComfort  
Time TempWeatherWind HumidityBarometerVisibility
9:55 PM
Mon, May 23
55 °FCool.8 mph82%29.96 "Hg10 mi
9:35 PM54 °FCool.8 mph88%29.96 "Hg10 mi
9:15 PM55 °FCool.6 mph82%29.95 "Hg10 mi
8:55 PM55 °FCool.7 mph82%29.95 "Hg10 mi
8:35 PM57 °FCool.7 mph82%29.95 "Hg10 mi
8:15 PM57 °FCool.6 mph82%29.94 "Hg10 mi
7:55 PM57 °FCool.7 mph77%29.94 "Hg10 mi
7:35 PM57 °FCool.8 mph82%29.94 "Hg10 mi
7:15 PM61 °FCool.7 mph72%29.93 "Hg10 mi
6:55 PM59 °FCool.9 mph82%29.93 "Hg10 mi
6:35 PM63 °FMild.9 mph73%29.93 "Hg10 mi
6:15 PM64 °FMild.12 mph64%29.93 "Hg10 mi
5:55 PM64 °FMild.10 mph68%29.93 "Hg10 mi
5:35 PM63 °FMild.7 mph73%29.93 "Hg10 mi
5:15 PM61 °FCool.6 mph77%29.93 "Hg10 mi
4:55 PM61 °FCool.9 mph72%29.94 "Hg10 mi
4:35 PM63 °FMild.12 mph68%29.94 "Hg10 mi
3:55 PM64 °FMild.5 mph64%29.95 "Hg10 mi
3:35 PM63 °FMild.6 mph68%29.95 "Hg10 mi
3:15 PM66 °FMild.5 mph64%29.96 "Hg10 mi
2:55 PM63 °FMild.7 mph68%29.96 "Hg10 mi
2:35 PM63 °FMild.8 mph68%29.96 "Hg10 mi
2:15 PM59 °FCool.7 mph82%29.96 "Hg10 mi
1:55 PM57 °FCool.7 mph88%29.96 "Hg9 mi
1:35 PM61 °FCool.5 mph72%29.97 "Hg10 mi
1:15 PM59 °FCool.7 mph77%29.96 "Hg9 mi
12:55 PM61 °FCool.10 mph72%29.96 "Hg10 mi
12:35 PM57 °FCool.9 mph82%29.97 "Hg10 mi
12:15 PM57 °FCool.9 mph82%29.97 "Hg10 mi
11:55 AM57 °FCool.10 mph77%29.97 "Hg10 mi
11:35 AM55 °FCool.7 mph82%29.97 "Hg10 mi
11:15 AM55 °FCool.10 mph88%29.98 "Hg10 mi
10:55 AM55 °FCool.12 mph82%29.97 "Hg10 mi
10:35 AM55 °FCool.12 mph82%29.97 "Hg8 mi
10:15 AM55 °FCool.12 mph82%29.97 "Hg10 mi
9:55 AM55 °FCool.13 mph82%29.98 "Hg10 mi
9:35 AM54 °FCool.12 mph82%29.98 "Hg10 mi
9:15 AM54 °FCool.9 mph82%29.98 "Hg10 mi
8:55 AM54 °FCool.7 mph82%29.98 "Hg10 mi
8:35 AM54 °FCool.7 mph82%29.98 "Hg10 mi
8:15 AM52 °FCool.6 mph88%29.98 "Hg10 mi
7:55 AM52 °FCool.6 mph88%29.98 "Hg10 mi
7:35 AM52 °FCool.7 mph88%29.98 "Hg10 mi
7:15 AM52 °FCool.6 mph88%29.98 "Hg10 mi
6:55 AM52 °FCool.6 mph88%29.98 "Hg10 mi
6:35 AM52 °FCool.No wind82%29.97 "Hg10 mi
6:15 AM50 °FCool.No wind88%29.97 "Hg10 mi
5:55 AM48 °FCool.No wind94%29.98 "Hg10 mi
5:35 AM46 °FCool.No wind93%29.97 "Hg10 mi
5:15 AM48 °FCool.3 mph87%29.98 "Hg10 mi
4:55 AM46 °FCool.No wind93%29.98 "Hg10 mi
4:35 AM46 °FCool.No wind93%29.98 "Hg10 mi
4:15 AM46 °FCool.No wind93%29.98 "Hg10 mi
3:55 AM48 °FCool.5 mph87%29.99 "Hg10 mi
3:35 AM48 °FCool.5 mph87%29.99 "Hg10 mi
3:15 AM50 °FCool.6 mph88%29.99 "Hg10 mi
2:55 AM52 °FCool.8 mph82%29.99 "Hg10 mi
2:35 AM52 °FCool.6 mph88%29.99 "Hg10 mi
2:15 AM52 °FCool.6 mph88%30.00 "Hg10 mi
1:55 AM52 °FCool.6 mph88%30.00 "Hg10 mi
1:35 AM52 °FCool.6 mph88%30.00 "Hg10 mi
1:15 AM52 °FCool.5 mph88%30.01 "Hg10 mi
12:55 AM52 °FCool.5 mph88%30.01 "Hg10 mi
12:35 AM52 °FCool.5 mph88%30.02 "Hg10 mi
12:15 AM52 °FCool.3 mph88%30.02 "Hg10 mi
11:55 PM
Sun, May 22
52 °FCool.5 mph88%30.02 "Hg10 mi
11:35 PM52 °FCool.3 mph88%30.02 "Hg10 mi
11:15 PM54 °FCool.5 mph82%30.02 "Hg10 mi
Weather by CustomWeather, © 2016

See weather overviewHow to use our weather pages